Tiempo cada hora Allande

Hoy, 19 Enero, Martes

Tiempo Temperatura Precipitaciones Viento Presión Humedad
00:00 +2°C° 0 mm 2 mps 680 mmHg 86%
01:00 +1°C° 0 mm 2 mps 679 mmHg 85%
02:00 +1°C° 0 mm 2 mps 679 mmHg 85%
03:00 +1°C° 0 mm 2 mps 678 mmHg 85%
04:00 -1°C° 0 mm 2 mps 678 mmHg 83%
05:00 -1°C° 0 mm 2 mps 677 mmHg 80%
06:00 -1°C° 0 mm 3 mps 677 mmHg 78%
07:00 -1°C° 0 mm 3 mps 677 mmHg 76%
08:00 -1°C° 0 mm 3 mps 677 mmHg 74%
09:00 0°C° 0 mm 3 mps 676 mmHg 72%
10:00 +2°C° 0 mm 3 mps 677 mmHg 69%
11:00 +4°C° 0 mm 3 mps 677 mmHg 66%
12:00 +7°C° 0 mm 3 mps 677 mmHg 64%
13:00 +7°C° 0 mm 2 mps 676 mmHg 65%
14:00 +6°C° 0 mm 2 mps 675 mmHg 66%
15:00 +6°C° 0 mm 2 mps 674 mmHg 67%
16:00 +4°C° 0 mm 3 mps 673 mmHg 69%
17:00 +3°C° 0 mm 3 mps 673 mmHg 71%
18:00 +2°C° 0 mm 3 mps 672 mmHg 73%
19:00 +2°C° 0 mm 3 mps 672 mmHg 73%
20:00 +1°C° 0 mm 3 mps 671 mmHg 72%
21:00 +1°C° 0 mm 3 mps 671 mmHg 71%
22:00 +1°C° 0 mm 3 mps 670 mmHg 71%
23:00 +1°C° 0 mm 3 mps 669 mmHg 72%

Mañana, 20 Enero, Miércoles

Tiempo Temperatura Precipitaciones Viento Presión Humedad
00:00 0°C° 0 mm 3 mps 668 mmHg 72%
01:00 0°C° 0 mm 4 mps 668 mmHg 75%
02:00 0°C° 0 mm 4 mps 667 mmHg 78%
03:00 0°C° 0 mm 4 mps 666 mmHg 81%
04:00 0°C° 0 mm 4 mps 666 mmHg 83%
05:00 +1°C° 0 mm 4 mps 665 mmHg 84%
06:00 +1°C° 0 mm 4 mps 664 mmHg 86%
07:00 +1°C° 0.1 mm 4 mps 664 mmHg 86%
08:00 +3°C° 0.1 mm 4 mps 664 mmHg 86%
09:00 +3°C° 0.1 mm 4 mps 663 mmHg 86%
10:00 +4°C° 0.4 mm 4 mps 663 mmHg 86%
11:00 +3°C° 0.4 mm 5 mps 663 mmHg 86%
12:00 +3°C° 0.4 mm 5 mps 663 mmHg 85%
13:00 +3°C° 0.8 mm 5 mps 663 mmHg 88%
14:00 +4°C° 0.8 mm 4 mps 663 mmHg 90%
15:00 +4°C° 0.8 mm 4 mps 662 mmHg 93%
16:00 +4°C° 0.6 mm 4 mps 663 mmHg 93%
17:00 +4°C° 0.6 mm 4 mps 663 mmHg 94%
18:00 +4°C° 0.6 mm 3 mps 663 mmHg 94%
19:00 +4°C° 0.1 mm 4 mps 664 mmHg 94%
20:00 +4°C° 0.1 mm 4 mps 664 mmHg 93%
21:00 +4°C° 0.1 mm 4 mps 665 mmHg 92%
22:00 +4°C° 0.1 mm 4 mps 665 mmHg 92%
23:00 +4°C° 0.1 mm 4 mps 666 mmHg 92%

Pasado mañana, 21 Enero, Jueves

Tiempo Temperatura Precipitaciones Viento Presión Humedad
00:00 +4°C° 0.1 mm 3 mps 667 mmHg 92%
01:00 +4°C° 0.1 mm 3 mps 667 mmHg 93%
02:00 +4°C° 0.1 mm 3 mps 667 mmHg 93%
03:00 +4°C° 0.1 mm 3 mps 667 mmHg 94%
04:00 +4°C° 0 mm 3 mps 667 mmHg 93%
05:00 +4°C° 0 mm 4 mps 667 mmHg 92%
06:00 +4°C° 0 mm 4 mps 667 mmHg 91%
07:00 +4°C° 0.5 mm 4 mps 666 mmHg 92%
08:00 +3°C° 0.5 mm 5 mps 665 mmHg 92%
09:00 +3°C° 0.5 mm 5 mps 665 mmHg 92%
10:00 +3°C° 2.5 mm 5 mps 665 mmHg 92%
11:00 +5°C° 2.5 mm 5 mps 665 mmHg 92%
12:00 +5°C° 2.5 mm 5 mps 665 mmHg 92%
13:00 +4°C° 0.1 mm 6 mps 665 mmHg 88%
14:00 +4°C° 0.1 mm 7 mps 665 mmHg 83%
15:00 +4°C° 0.1 mm 8 mps 665 mmHg 79%
16:00 +2°C° 0.5 mm 8 mps 665 mmHg 82%
17:00 +2°C° 0.5 mm 8 mps 665 mmHg 86%
18:00 +1°C° 0.5 mm 8 mps 665 mmHg 89%
19:00 +2°C° 0.3 mm 7 mps 666 mmHg 90%
20:00 +1°C° 0.3 mm 6 mps 667 mmHg 91%
21:00 +1°C° 0.3 mm 5 mps 668 mmHg 92%
22:00 +1°C° 0.2 mm 5 mps 668 mmHg 93%
23:00 0°C° 0.2 mm 4 mps 668 mmHg 93%

22 Enero, Viernes

Tiempo Temperatura Precipitaciones Viento Presión Humedad
00:00 +1°C° 0.2 mm 3 mps 668 mmHg 94%
01:00 +2°C° 0.7 mm 2 mps 668 mmHg 95%
02:00 +2°C° 0.7 mm 2 mps 667 mmHg 95%
03:00 +2°C° 0.7 mm 2 mps 666 mmHg 96%
04:00 +1°C° 2.8 mm 3 mps 666 mmHg 96%
05:00 +1°C° 2.8 mm 3 mps 666 mmHg 96%
06:00 0°C° 2.8 mm 4 mps 665 mmHg 96%
07:00 +1°C° 1.1 mm 3 mps 666 mmHg 96%
08:00 +1°C° 1.1 mm 2 mps 667 mmHg 97%
09:00 +1°C° 1.1 mm 2 mps 668 mmHg 98%
10:00 +1°C° 0.2 mm 2 mps 669 mmHg 96%
11:00 +2°C° 0.2 mm 2 mps 669 mmHg 94%
12:00 +2°C° 0.2 mm 2 mps 670 mmHg 92%
13:00 +2°C° 0.1 mm 3 mps 670 mmHg 90%
14:00 +2°C° 0.1 mm 3 mps 670 mmHg 88%
15:00 +2°C° 0.1 mm 3 mps 670 mmHg 86%
16:00 +1°C° 0.1 mm 4 mps 670 mmHg 87%
17:00 +1°C° 0.1 mm 4 mps 671 mmHg 88%
18:00 0°C° 0.1 mm 5 mps 671 mmHg 89%
19:00 0°C° 0.1 mm 5 mps 671 mmHg 89%
20:00 -1°C° 0.1 mm 6 mps 671 mmHg 89%
21:00 +1°C° 0.1 mm 6 mps 670 mmHg 88%
22:00 +1°C° 0.5 mm 6 mps 671 mmHg 90%
23:00 +1°C° 0.5 mm 5 mps 671 mmHg 92%

23 Enero, Sábado

Tiempo Temperatura Precipitaciones Viento Presión Humedad
00:00 +1°C° 0.5 mm 5 mps 671 mmHg 94%
01:00 +1°C° 0.8 mm 5 mps 671 mmHg 94%
02:00 +1°C° 0.8 mm 5 mps 671 mmHg 94%
03:00 +1°C° 0.8 mm 4 mps 671 mmHg 93%
04:00 +1°C° 0.5 mm 5 mps 670 mmHg 93%
05:00 +1°C° 0.5 mm 5 mps 670 mmHg 92%
06:00 +1°C° 0.5 mm 5 mps 670 mmHg 92%
07:00 +1°C° 0.9 mm 5 mps 669 mmHg 93%
08:00 +1°C° 0.9 mm 5 mps 669 mmHg 94%
09:00 +3°C° 0.9 mm 4 mps 668 mmHg 95%
10:00 +2°C° 1 mm 5 mps 668 mmHg 95%
11:00 +3°C° 1 mm 5 mps 668 mmHg 94%
12:00 +5°C° 1 mm 5 mps 668 mmHg 93%
13:00 +5°C° 1 mm 5 mps 668 mmHg 93%
14:00 +6°C° 1 mm 5 mps 668 mmHg 92%
15:00 +6°C° 1 mm 5 mps 668 mmHg 92%
16:00 +5°C° 0.2 mm 5 mps 668 mmHg 92%
17:00 +5°C° 0.2 mm 5 mps 668 mmHg 92%
18:00 +3°C° 0.2 mm 5 mps 668 mmHg 92%
19:00 +3°C° 0.1 mm 5 mps 669 mmHg 91%
20:00 +3°C° 0.1 mm 5 mps 669 mmHg 90%
21:00 +2°C° 0.1 mm 5 mps 669 mmHg 89%
22:00 +2°C° 0.1 mm 5 mps 670 mmHg 90%
23:00 +3°C° 0.1 mm 4 mps 670 mmHg 91%

24 Enero, Domingo

Tiempo Temperatura Precipitaciones Viento Presión Humedad
00:00 +3°C° 0.1 mm 4 mps 671 mmHg 92%
01:00 +3°C° 0.1 mm 4 mps 671 mmHg 92%
02:00 +3°C° 0.1 mm 4 mps 671 mmHg 92%
03:00 +3°C° 0.1 mm 4 mps 671 mmHg 92%
04:00 +1°C° 0.1 mm 4 mps 671 mmHg 92%
05:00 +2°C° 0.1 mm 3 mps 671 mmHg 92%
06:00 +2°C° 0.1 mm 3 mps 672 mmHg 91%
07:00 +2°C° 0 mm 3 mps 672 mmHg 91%
08:00 +2°C° 0 mm 3 mps 672 mmHg 91%
09:00 +2°C° 0 mm 3 mps 673 mmHg 91%
10:00 +3°C° 0.1 mm 3 mps 673 mmHg 88%
11:00 +4°C° 0.1 mm 3 mps 674 mmHg 85%
12:00 +5°C° 0.1 mm 4 mps 674 mmHg 82%
13:00 +5°C° 0.1 mm 3 mps 674 mmHg 85%
14:00 +5°C° 0.1 mm 2 mps 674 mmHg 88%
15:00 +5°C° 0.1 mm 2 mps 674 mmHg 91%
16:00 +6°C° 0.1 mm 1 mps 674 mmHg 92%
17:00 +5°C° 0.1 mm 1 mps 674 mmHg 94%
18:00 +5°C° 0.1 mm 1 mps 675 mmHg 96%
19:00 +5°C° 0.1 mm 1 mps 675 mmHg 96%
20:00 +5°C° 0.1 mm 1 mps 675 mmHg 96%
21:00 +5°C° 0.1 mm 1 mps 676 mmHg 96%
22:00 +5°C° 0 mm 1 mps 676 mmHg 96%
23:00 +5°C° 0 mm 1 mps 676 mmHg 96%
Mostrar más

Necesitamos Su Consentimiento

Meteoprog y nuestros Proveedores de Servicios pueden almacenar y acceder a sus datos personales como cookies, identificadores de dispositivo u otras tecnologías similares de su dispositivo y procesar dichos datos para personalizar contenido y anuncios, además de ofrecer funciones de redes sociales y analizar el tráfico.

  • Almacenar y/o acceder a información en su dispositivo

    Se puede almacenar o acceder a cookies, identificadores de dispositivo u otra información de su dispositivo para los fines anteriormente indicados.

  • Anuncios y contenido personalizados, medición de anuncios y contenido, percepciones del público, y desarrollo de productos

    Los anuncios y el contenido pueden personalizarse en base a su perfil. Se pueden añadir más datos para personalizar mejor los anuncios y contenidos. Se puede medir el rendimiento de los anuncios y contenidos. Se puede obtener la percepción sobre el público que ha visto los anuncios y contenidos. Dichos datos pueden usarse para desarrollar o mejorar la experiencia del usuario, sistemas y software.

Al hacer clic en ‘Estoy De Acuerdo’ usted permitirá el uso de las cookies, identificadores de dispositivo, balizas web u otras tecnologías similares indicadas. Su configuración puede cambiarse desde el navegador de su dispositivo.

Para ciertos fines, los intereses legítimos pueden ser considerados por encima del consentimiento. Puede leer más sobre ello en nuestra Política de Privacidad y Cookies.